Content
SEND FEEDBACK

Daily
Averages
Monthly
Summary
United States of America

UPI, GUAM


Home > North America > United States > Guam
Elevation: 53 feet     Latitude: 13 34N     Longitude: 144 55E

WEATHER
 
SELECT A DAY
Number of Records: 208,860;   Date Range: 1/1/95 - 7/20/14
 
SHARE

PRINT THIS DATA

[ ← Previous Day ]
WEATHER ALMANAC - MARCH 18, 2013
[ Next Day → ]
[ °C ]   °F
Weather ElementAverageHighLow
Temperature79.9 °F86 °F (9:54 am)75.2 °F (5:09 pm)
Dewpoint73.8 °F77 °F (9:54 pm)70 °F (1:54 am)
Humidity82.2 %94 % (5:09 pm)65 % (9:54 am)
Barometer29.88 in29.93 in (10:39 am)29.84 in (2:54 am)
Wind Speed11.5 mph23 mph (1:34 pm)
Wind Gust29.9 mph (11:05 am)
Weather ElementAverage
Visibility7.2 mi
Wind DirectionENE (79.8 °)

Weather ElementTotal
Precipitation3.01 in
Cooling Degree Days15.6 (Base 65)
Growing Degree Days30.6 (Base 50)
Averaged from 45 records on March 18, 2013
WEATHER CONDITIONS BREAKOUT
WIND DIRECTION BREAKOUT
WEATHER BY HOUR - MARCH 18, 2013
[ °C ]   °F
Local TimeTemperatureDewpointHumidityBarometerVisibilityWind DirectionWind SpeedGust SpeedPrecipitationEventsConditions
1:54 AM80.1 °F70.0 °F71 %29.86 in10.0 miENE (60°)10.4 mphClear
2:54 AM80.1 °F70.0 °F71 %29.84 in10.0 miENE (60°)10.4 mphClear
3:54 AM79.0 °F70.0 °F74 %29.84 in10.0 miNE (50°)6.9 mphClear
4:54 AM79.0 °F70.0 °F74 %29.84 in10.0 miNE (50°)6.9 mphPartly Cloudy
5:54 AM80.1 °F71.1 °F74 %29.85 in10.0 miNE (50°)6.9 mphScattered Clouds
6:54 AM81.0 °F72.0 °F74 %29.88 in10.0 miNE (50°)9.2 mphOvercast
7:54 AM82.9 °F73.0 °F72 %29.89 in10.0 miENE (60°)11.5 mphOvercast
8:54 AM84.0 °F72.0 °F67 %29.90 in10.0 miENE (60°)13.8 mphOvercast
9:54 AM86.0 °F73.0 °F65 %29.91 in10.0 miENE (60°)17.3 mphOvercast
10:39 AM82.4 °F73.4 °F74 %29.93 in9.0 miEast (90°)18.4 mph27.6 mph0.00 inRainLight Rain
10:54 AM80.1 °F75.0 °F85 %29.91 in6.0 miEast (90°)20.7 mph27.6 mph0.00 inRainLight Rain
11:05 AM80.6 °F75.2 °F84 %29.93 in5.0 miEast (80°)18.4 mph29.9 mph0.00 inRainLight Rain
11:54 AM84.0 °F73.0 °F69 %29.89 in10.0 miENE (60°)16.1 mph0.00 inMostly Cloudy
12:54 PM84.9 °F75.0 °F72 %29.85 in10.0 miENE (70°)16.1 mph0.00 inMostly Cloudy
1:23 PM84.2 °F73.4 °F70 %29.86 in10.0 miENE (60°)18.4 mph25.3 mphMostly Cloudy
1:34 PM84.2 °F73.4 °F70 %29.86 in10.0 miNE (50°)23.0 mph28.8 mphScattered Clouds
1:42 PM84.2 °F73.4 °F70 %29.86 in10.0 miENE (60°)20.7 mph28.8 mphMostly Cloudy
1:54 PM84.9 °F73.9 °F69 %29.84 in10.0 miNE (50°)18.4 mphMostly Cloudy
2:33 PM78.8 °F73.4 °F83 %29.87 in2.0 miESE (110°)12.7 mph20.7 mph0.01 inRainRain
2:47 PM78.8 °F73.4 °F83 %29.86 in10.0 miEast (100°)9.2 mph0.05 inRainLight Rain
2:54 PM78.1 °F73.9 °F87 %29.84 in10.0 miEast (90°)12.7 mph0.05 inOvercast
2:58 PM78.8 °F73.4 °F83 %29.86 in10.0 miEast (90°)9.2 mphOvercast
3:02 PM78.8 °F75.2 °F89 %29.86 in10.0 miEast (90°)9.2 mphOvercast
3:54 PM78.1 °F73.9 °F87 %29.84 in6.0 miEast (80°)12.7 mph0.05 inRainRain
4:42 PM78.8 °F75.2 °F89 %29.88 in2.0 miEast (100°)6.9 mph0.06 inRainHeavy Rain
4:47 PM78.8 °F75.2 °F89 %29.89 in0.8 miESE (110°)15.0 mph20.7 mph0.12 inRainHeavy Rain
4:54 PM77.0 °F73.0 °F88 %29.87 in1.0 miSE (130°)11.5 mph20.7 mph0.24 inRainHeavy Rain
5:09 PM75.2 °F73.4 °F94 %29.89 in0.8 miSE (130°)5.8 mph0.22 inRainHeavy Rain
5:19 PM75.2 °F73.4 °F94 %29.89 in1.0 miVariable5.8 mph0.34 inRainHeavy Rain
5:28 PM75.2 °F73.4 °F94 %29.89 in3.0 miSE (130°)5.8 mph0.40 inRainRain
5:35 PM75.2 °F73.4 °F94 %29.90 in2.0 miESE (120°)5.8 mph0.43 inRainRain
5:54 PM75.9 °F73.9 °F94 %29.88 in2.0 miESE (110°)5.8 mph0.48 inRainLight Rain
6:00 PM77.0 °F73.4 °F89 %29.90 in4.0 miESE (110°)4.6 mph0.02 inRainLight Rain
6:25 PM77.0 °F73.4 °F89 %29.91 in6.0 miEast (90°)8.1 mph0.10 inRainRain
6:33 PM77.0 °F73.4 °F89 %29.91 in7.0 miEast (90°)6.9 mph0.13 inRainRain
6:54 PM77.0 °F73.9 °F90 %29.88 in7.0 miEast (80°)5.8 mph0.18 inRainRain
7:54 PM78.1 °F75.0 °F90 %29.88 in10.0 miEast (90°)8.1 mph0.07 inRainLight Rain
8:54 PM80.1 °F75.9 °F87 %29.89 in5.0 miENE (70°)10.4 mph0.04 inRainLight Rain
9:01 PM80.6 °F75.2 °F84 %29.91 in5.0 miENE (70°)12.7 mph0.00 inRainLight Rain
9:54 PM81.0 °F77.0 °F88 %29.89 in10.0 miEast (90°)12.7 mph0.00 inMostly Cloudy
10:10 PM80.6 °F77.0 °F89 %29.91 in4.0 miEast (80°)10.4 mph0.00 inRainLight Rain
10:24 PM80.6 °F75.2 °F84 %29.91 in7.0 miEast (80°)15.0 mph21.9 mph0.01 inRainLight Rain
10:54 PM81.0 °F77.0 °F88 %29.89 in10.0 miEast (80°)11.5 mph0.01 inMostly Cloudy
11:05 PM80.6 °F77.0 °F89 %29.91 in10.0 miEast (80°)9.2 mphScattered Clouds
11:54 PM81.0 °F77.0 °F88 %29.88 in10.0 miEast (80°)12.7 mph0.00 inScattered Clouds
Hourly data recorded from PGUM, located miles away from Upi, Guam







STORIES FROM OUR PARTNERS